RH
68 66 64 62 59 56 54 52 52 51 49 49 51 55 59 61 63 63 64 69 63 43 26 11 3 3 3 3 3 2 2 3 2 2 3 2 2 3 2 2 3 3 3 3 3 3 4 4 5 5 4 4 5 4 4 5 4 5 5 4 4 4 5 4 4 4 4 3 3 3 3 3 3 3 4 4 4 4 4 4 4 4 4 4 4 4 3 4
65 66 67 66 63 60 59 57 54 51 49 48 47 49 52 56 62 65 65 67 71 64 50 31 10 3 3 3 3 3 2 2 3 2 2 3 2 3 3 2 3 3 3 3 3 4 4 5 5 5 5 5 5 5 4 5 4 4 4 4 4 4 4 4 4 3 3 3 2 3 3 3 3 4 4 4 4 4 4 4 4 3 4 3 4 4 4 4
56 60 62 64 62 59 58 57 55 52 51 49 47 47 47 49 55 62 65 65 69 71 70 58 31 8 2 3 3 3 3 2 2 3 2 3 3 3 3 3 3 3 3 3 4 5 5 5 5 5 5 5 4 4 4 3 3 3 3 3 3 3 3 3 3 3 2 3 3 3 3 3 4 4 4 4 4 4 3 4 4 4 4 4 4 5 5 5
42 48 52 53 54 55 55 56 55 53 53 52 50 47 46 47 48 53 60 64 65 67 71 74 60 29 6 2 3 2 3 3 2 2 3 2 3 3 3 3 3 3 3 4 4 5 5 5 6 6 5 5 4 3 3 3 3 2 2 2 2 2 2 3 2 3 3 3 3 3 4 4 4 4 4 4 3 3 3 4 4 4 4 5 5 6 8 8
27 35 40 42 43 47 51 54 56 56 54 54 53 50 48 48 49 49 51 57 63 65 66 71 74 57 25 4 3 4 2 3 3 2 3 2 3 3 3 3 3 3 3 3 4 5 6 6 6 6 5 5 3 3 2 2 2 2 2 2 2 2 3 3 3 3 3 3 3 4 3 3 4 4 3 3 3 3 3 4 5 5 6 7 6 6 8 10
15 22 29 33 36 39 44 50 53 54 52 51 53 53 52 50 51 51 49 51 56 62 66 67 71 74 56 22 2 3 3 3 4 2 3 2 2 3 2 3 3 3 3 3 4 5 6 6 6 6 5 4 3 2 2 2 2 2 2 2 2 3 3 3 3 3 4 3 3 3 3 4 4 3 3 3 3 4 4 5 7 7 7 8 8 7 7 9
9 13 18 23 27 30 34 40 44 46 46 46 48 50 53 53 53 52 51 49 50 55 63 67 69 73 75 50 14 2 4 3 3 3 3 3 2 3 2 3 3 3 3 3 4 5 6 6 6 6 5 3 3 2 2 2 2 2 3 3 3 3 3 3 3 3 3 3 4 4 3 3 4 4 3 4 4 5 7 8 8 8 8 8 8 8 8 9
9 10 13 16 19 23 26 30 35 38 40 42 45 46 47 51 54 54 53 51 48 49 55 63 67 69 77 72 32 3 3 3 3 3 2 3 2 3 3 2 3 3 3 3 4 5 5 7 7 6 5 4 3 3 3 3 2 3 3 3 3 3 3 3 3 3 3 4 3 4 4 4 5 5 5 5 5 6 8 8 8 8 8 8 8 9 10 10
9 11 13 15 17 19 22 25 29 33 38 41 44 46 46 47 50 52 52 52 49 47 50 55 62 65 73 79 45 7 3 3 2 4 2 3 3 2 3 2 3 3 3 3 3 5 5 7 7 6 5 4 4 3 3 3 3 4 3 3 4 3 3 3 4 4 4 4 4 6 6 6 7 7 6 7 6 6 7 8 8 8 8 9 10 11 11 10
10 11 13 16 18 19 20 23 26 30 36 41 45 48 50 51 52 52 51 52 53 49 48 51 58 61 68 79 52 10 3 4 2 4 3 3 3 2 3 2 3 3 3 3 3 4 5 7 7 6 6 5 5 5 4 4 4 4 4 4 4 4 4 4 5 5 6 6 6 7 7 7 7 7 7 7 6 6 8 8 8 8 10 11 11 11 10 9
12 13 14 16 18 19 21 24 28 32 36 40 45 47 50 55 58 60 59 57 60 58 51 50 56 59 64 76 62 20 3 5 2 3 3 3 3 2 3 2 3 3 3 3 3 4 5 6 7 7 6 6 6 5 5 5 5 5 5 5 5 5 6 6 6 6 7 6 6 7 7 7 6 7 7 7 6 7 8 8 8 10 11 11 11 11 10 9
12 12 13 15 16 18 20 23 26 30 34 38 43 48 51 56 62 67 71 70 71 67 55 49 54 59 61 72 71 35 6 4 3 3 4 3 3 3 3 3 2 3 3 3 3 4 5 6 7 7 7 7 6 6 7 6 6 6 6 7 7 6 7 7 7 7 7 6 7 6 7 8 7 7 8 7 7 8 9 8 9 11 11 12 11 10 10 8
9 10 10 11 12 13 15 18 23 29 37 47 53 59 60 61 65 69 74 77 76 66 53 49 53 59 62 67 73 48 12 3 4 3 4 3 3 3 3 3 2 3 3 3 3 4 5 6 7 7 7 7 7 7 7 7 7 7 7 7 7 7 7 7 7 7 7 6 6 6 7 9 8 6 7 7 8 9 9 9 10 11 11 11 11 10 9 7
6 7 7 7 8 9 13 18 27 38 52 65 72 75 75 72 71 70 73 74 71 61 51 52 52 57 63 65 72 56 18 3 4 3 4 3 3 4 3 3 3 3 3 3 4 4 5 7 7 7 7 8 8 8 8 8 7 8 7 7 7 7 7 7 7 6 6 7 7 6 7 9 9 8 6 7 9 9 9 9 10 10 11 11 10 9 7 6
6 6 6 6 6 7 11 17 26 44 64 75 78 80 80 77 73 70 72 69 66 62 58 58 56 58 67 70 74 62 25 4 4 3 3 4 3 4 3 3 3 3 3 3 4 5 6 7 7 7 8 8 8 8 8 8 7 8 8 7 7 7 7 6 6 7 7 7 7 7 8 10 11 9 7 8 9 10 10 11 12 11 11 10 9 7 6 5
11 11 10 9 9 8 9 11 17 39 67 75 70 72 72 71 70 68 70 74 73 72 71 70 68 68 76 78 77 65 32 8 4 3 3 4 3 4 3 3 3 3 4 4 4 5 6 6 7 7 8 8 8 8 8 8 8 7 7 7 7 7 6 6 6 8 8 7 8 8 9 11 12 10 8 8 10 11 12 12 12 11 11 9 7 6 5 5
26 23 21 17 15 13 11 11 10 26 60 73 65 64 66 65 69 73 78 84 86 84 81 78 75 75 81 81 73 58 34 12 4 4 3 4 4 4 4 4 4 4 4 4 5 6 6 7 7 8 8 9 8 8 8 8 8 7 7 7 7 7 7 6 6 8 8 8 9 9 9 12 14 12 10 10 11 11 12 12 11 10 9 7 6 6 6 6
35 32 30 26 22 19 15 14 10 14 43 71 71 64 66 71 76 82 85 87 89 87 79 74 72 69 65 65 57 39 23 10 4 4 4 4 4 4 4 4 4 4 4 5 5 6 7 7 8 8 9 9 9 9 8 8 8 7 7 6 7 7 8 7 7 8 9 9 10 10 10 12 15 14 12 13 13 12 12 11 9 8 7 6 6 6 7 9
33 30 28 25 22 20 16 15 13 10 22 54 74 71 69 77 85 87 87 89 90 82 67 59 60 54 41 36 30 18 10 6 4 4 4 4 4 4 4 4 4 5 5 5 6 6 7 8 9 9 9 9 9 9 8 7 7 6 6 7 7 7 8 8 9 10 10 9 10 11 11 13 16 14 13 13 13 12 11 9 7 6 6 7 7 8 10 12
25 21 19 17 15 15 14 12 12 11 10 27 59 77 76 77 84 85 85 90 89 76 60 51 53 53 41 26 16 11 8 5 4 4 4 4 4 5 4 5 5 5 5 6 7 8 8 9 9 10 9 9 9 8 7 6 7 7 7 8 8 8 9 9 10 11 12 11 10 11 12 15 16 14 13 13 12 11 8 7 6 7 7 8 9 11 13 15
18 16 14 13 12 11 11 10 8 9 8 9 30 64 83 81 79 79 83 92 87 67 54 52 58 59 49 33 18 12 8 5 5 4 5 5 4 5 5 5 5 6 7 7 8 9 9 10 10 10 9 9 8 7 7 7 7 7 8 9 9 9 9 9 10 11 12 11 11 12 12 14 15 13 11 10 9 8 7 7 7 8 10 10 11 14 18 19
16 15 13 12 11 10 9 9 7 6 7 6 10 38 78 89 82 80 85 96 88 62 48 52 53 42 32 26 16 9 6 5 5 5 5 5 5 6 6 6 6 7 8 8 9 9 9 10 10 9 9 7 7 7 7 7 8 9 9 9 10 10 10 10 10 11 12 12 12 12 11 13 13 10 8 8 7 7 7 8 9 12 13 12 15 19 22 23
17 15 15 13 12 11 9 7 7 6 4 7 5 18 62 92 90 88 91 97 90 65 47 43 35 20 12 12 9 6 5 4 5 5 6 6 5 6 6 7 8 7 9 9 9 10 10 10 9 8 8 7 7 7 7 8 8 9 9 10 11 11 11 11 11 11 11 12 11 10 9 10 9 7 7 7 7 9 9 10 13 15 16 17 20 24 25 26
17 16 16 14 14 13 12 9 6 6 3 5 6 10 50 89 94 93 95 98 92 67 44 30 19 10 6 7 7 6 5 4 5 5 5 7 9 10 11 10 9 9 10 10 10 10 9 9 8 8 7 7 7 7 8 8 9 10 10 11 12 12 12 12 12 11 11 11 9 8 7 7 8 7 7 9 10 10 11 12 15 17 19 22 24 25 26 29
16 15 13 12 13 11 14 14 8 7 4 5 4 7 48 92 97 96 99 100 91 65 40 22 10 6 6 8 7 6 5 5 6 9 12 17 17 15 12 10 9 9 10 10 10 9 8 8 8 7 7 7 7 8 8 9 10 10 11 12 11 12 13 12 12 11 10 8 7 7 7 7 10 11 10 11 11 11 13 15 17 20 23 25 25 26 29 32
15 15 14 12 12 9 12 17 14 8 2 6 5 6 51 96 100 98 99 101 94 66 36 18 10 9 7 8 7 6 8 10 13 16 18 17 14 11 10 10 10 10 10 10 9 8 8 8 8 8 7 7 8 8 9 10 10 10 11 12 12 12 12 11 11 9 8 7 6 8 9 9 14 18 16 14 12 12 14 16 20 25 28 27 28 31 34 36
18 17 15 12 11 10 10 13 17 16 8 7 5 12 58 98 101 97 98 99 93 71 43 22 14 15 15 15 14 13 15 15 15 13 12 11 11 11 12 11 11 11 10 9 8 8 8 8 8 8 8 8 8 8 10 11 11 11 11 11 11 11 11 10 9 7 7 6 6 9 12 11 14 19 20 16 13 14 15 20 25 28 31 32 35 39 40 41
24 18 16 14 12 11 15 19 22 27 24 14 11 31 72 99 100 97 98 94 83 73 60 42 31 28 27 28 28 26 24 22 20 17 16 16 15 13 12 10 10 10 10 9 9 9 9 9 8 8 8 8 8 9 10 11 11 11 11 11 10 10 9 8 7 7 7 7 7 10 12 13 15 20 22 17 16 19 24 29 31 34 38 41 43 47 47 46
26 17 19 18 15 26 49 60 51 40 34 24 31 63 91 100 100 98 98 90 74 70 65 54 46 42 40 41 40 35 27 22 21 19 18 16 14 12 10 10 10 9 10 9 9 9 9 9 8 8 8 8 8 10 10 11 11 11 10 10 9 8 8 7 7 8 8 9 9 10 11 13 15 22 27 23 20 23 29 37 43 45 48 47 47 50 48 45
24 17 28 27 29 59 86 93 84 68 58 52 61 87 98 99 100 98 96 88 75 73 69 61 59 57 54 51 45 34 21 14 12 11 11 10 9 9 9 10 10 10 10 9 9 9 8 8 8 8 8 8 9 10 11 11 10 10 9 8 8 7 7 8 8 9 9 10 9 9 11 12 16 24 30 30 31 32 35 43 48 48 48 45 43 43 42 43
26 30 56 57 58 80 86 86 93 91 87 86 87 97 100 99 102 101 98 89 81 79 73 64 56 46 39 32 26 21 16 13 13 12 13 12 12 12 11 11 11 10 10 9 9 9 8 8 8 8 8 9 10 11 11 10 9 9 8 8 7 7 8 8 8 9 10 10 10 10 12 15 23 29 29 34 44 45 43 43 42 40 40 39 36 36 38 40
37 49 74 78 80 90 84 82 95 96 96 99 97 96 93 88 89 93 88 77 67 59 48 40 32 23 19 18 18 20 21 21 21 19 18 16 15 13 12 11 10 10 10 9 9 8 7 7 8 8 9 10 11 10 10 9 8 8 8 9 9 9 9 8 9 10 11 12 11 14 18 22 30 32 28 33 39 37 34 33 32 32 32 32 33 36 40 45
50 61 70 75 84 92 86 81 88 94 95 92 82 72 64 55 53 56 55 47 40 36 30 27 25 23 24 25 25 24 22 20 17 15 14 12 11 10 10 10 9 9 9 8 8 7 7 7 8 9 10 10 10 9 9 8 8 8 8 10 9 10 11 9 10 11 12 14 14 18 25 27 29 27 24 25 23 20 22 25 28 29 31 35 42 49 57 65
58 62 64 71 78 79 74 66 70 84 89 84 71 57 47 39 35 35 35 32 30 29 28 27 28 30 33 33 29 23 17 13 11 11 10 10 10 10 9 9 9 8 8 8 8 7 8 8 8 10 10 10 9 8 8 8 8 9 9 10 10 13 15 12 12 11 12 14 14 19 27 28 23 17 16 16 15 16 22 29 33 36 44 55 64 72 79 84
63 61 62 67 69 68 68 64 64 72 78 79 74 63 55 48 42 40 37 35 34 33 33 33 34 36 34 32 27 20 15 12 11 11 10 10 10 9 9 8 8 8 8 8 8 8 8 8 9 9 9 9 9 8 9 9 10 10 10 11 11 13 15 14 13 14 13 11 11 15 21 22 16 12 13 16 20 28 35 41 47 55 69 80 85 88 91 91
73 69 65 64 62 62 65 66 67 67 65 65 64 62 61 59 55 52 49 47 44 42 42 40 36 31 25 20 17 14 13 12 10 9 9 9 9 8 9 8 8 9 8 9 9 9 9 9 9 9 9 10 10 10 11 11 11 11 10 11 11 11 13 12 12 12 12 10 10 12 14 15 14 15 21 28 36 44 50 57 68 80 91 96 97 97 92 82
80 73 69 64 60 58 55 54 56 53 47 44 41 39 40 41 41 41 40 39 36 33 32 28 24 20 16 13 11 10 10 9 8 8 8 8 9 9 8 9 9 9 10 10 9 9 9 8 9 11 12 12 12 12 12 11 11 11 11 11 12 12 13 13 11 10 11 10 9 10 13 18 22 28 37 47 53 58 64 74 86 95 101 102 96 83 66 49
78 72 69 60 50 44 39 35 32 28 27 27 24 24 25 25 25 24 24 23 21 19 18 16 14 13 11 10 9 8 8 8 8 9 9 8 9 9 9 10 10 9 10 9 9 10 10 9 10 12 13 13 13 13 12 12 12 13 13 13 14 13 13 13 11 10 11 10 10 14 20 30 39 47 56 62 65 71 79 90 99 103 97 84 65 46 33 28
74 67 61 47 34 30 25 21 19 16 18 20 19 21 23 23 22 20 19 17 16 14 13 12 11 10 10 9 8 9 9 9 9 9 9 9 9 9 9 9 9 10 11 11 12 13 13 12 11 12 14 13 13 14 14 14 15 15 16 15 14 14 12 11 11 12 12 12 17 27 40 51 58 65 73 77 79 85 95 102 101 88 67 46 32 27 28 30
60 47 42 32 25 25 21 17 17 17 19 20 20 21 21 21 20 18 15 14 13 12 11 10 10 9 10 9 9 10 9 10 10 9 9 9 9 9 10 10 12 12 13 14 15 16 15 15 13 13 14 14 15 15 15 16 17 17 17 15 13 12 10 10 11 14 19 26 38 52 60 66 74 80 86 89 89 92 98 93 77 55 36 28 28 30 32 33
42 28 27 25 24 27 25 19 18 19 20 21 20 20 19 17 16 14 13 12 11 11 11 10 11 10 10 10 10 10 10 10 9 9 9 9 10 11 12 13 15 15 16 17 17 18 17 16 15 15 15 15 16 16 16 17 18 17 16 14 11 10 9 12 19 30 44 56 68 76 72 72 87 96 93 89 88 86 79 63 46 34 30 31 33 34 35 34
34 26 26 28 30 31 24 18 18 20 21 20 19 18 16 14 13 13 12 11 11 11 11 11 11 10 10 10 9 9 9 9 9 10 10 12 13 14 15 16 17 18 18 18 19 19 18 17 16 16 15 15 16 17 16 16 17 16 14 11 9 12 20 34 49 62 71 78 86 90 83 83 96 103 94 84 78 67 51 38 32 32 34 35 36 36 32 26
33 28 30 35 36 30 19 14 18 22 21 18 16 16 14 13 13 12 11 11 11 11 10 10 10 10 9 9 9 9 10 10 12 13 14 16 16 17 18 19 19 19 20 21 21 20 18 17 14 13 13 13 15 15 15 15 15 13 10 11 19 36 54 71 83 86 83 84 94 99 95 97 104 99 84 70 58 45 35 32 34 36 37 37 33 27 20 14
37 32 35 41 36 24 15 14 18 21 20 17 15 13 13 12 12 11 11 10 10 9 9 9 9 9 9 10 10 11 12 13 15 16 16 18 19 20 20 20 21 22 22 23 21 19 18 16 13 11 11 12 14 15 15 13 11 11 16 29 48 68 84 91 95 95 89 88 96 100 98 98 94 75 56 45 38 33 33 36 38 38 35 29 20 14 10 7
38 38 41 41 29 17 16 17 19 18 17 17 15 13 13 11 11 10 9 9 9 9 9 9 10 11 12 13 14 15 15 16 17 18 19 20 21 22 22 23 24 24 23 23 20 17 15 14 13 13 12 13 14 13 11 10 14 28 47 64 77 88 96 98 98 99 95 92 96 98 91 81 63 42 33 33 33 35 39 40 38 32 23 14 10 8 6 5
44 44 42 34 22 17 20 21 20 18 16 16 14 13 12 10 10 9 9 9 9 9 10 11 13 14 15 16 17 17 18 18 20 21 21 23 23 24 25 25 25 25 23 20 15 12 11 12 14 14 12 12 11 12 20 29 42 61 77 85 89 95 100 102 101 102 99 95 92 82 67 54 40 32 33 37 39 41 42 37 29 19 10 7 7 6 6 6
54 45 34 24 18 19 21 19 18 16 14 14 12 11 10 9 9 9 9 10 11 12 14 15 16 17 17 18 19 20 21 22 23 24 24 25 26 26 26 26 24 22 17 13 11 10 10 11 11 10 11 16 23 35 53 63 70 78 84 88 91 95 101 103 102 102 97 86 74 57 42 36 35 35 39 42 43 41 34 25 17 10 6 6 6 6 6 6
39 29 19 17 17 18 17 15 13 12 10 11 9 9 9 9 9 11 11 14 15 16 17 16 17 17 17 19 21 23 25 25 26 26 27 27 27 26 25 22 18 15 11 9 9 8 8 10 14 20 31 45 56 66 74 76 76 81 86 91 93 93 98 100 97 91 79 63 49 40 34 35 39 42 45 44 38 30 21 14 9 6 5 6 6 6 6 6
15 14 14 18 18 16 15 12 10 9 8 9 8 9 10 11 12 14 15 16 17 17 18 18 19 20 21 24 25 26 27 27 27 28 27 26 24 22 19 15 11 9 7 7 8 10 16 27 38 46 57 69 73 73 74 73 76 84 88 91 93 90 87 86 78 65 52 42 37 36 38 42 46 46 43 35 25 16 11 7 6 6 6 6 6 6 6 7
12 14 16 17 15 12 11 9 9 9 9 10 10 12 13 14 15 16 17 18 18 19 19 21 23 24 26 27 27 27 28 27 26 25 23 21 18 14 10 7 6 7 11 17 25 34 43 53 59 59 60 67 69 68 71 70 71 81 87 86 85 79 70 64 54 44 38 36 37 41 45 48 47 41 31 21 14 9 6 6 6 6 6 6 6 7 6 7
16 15 13 12 10 9 9 8 9 10 10 12 13 15 16 17 18 18 18 18 19 21 23 24 26 27 27 27 27 26 26 24 22 19 16 12 9 7 7 11 16 24 34 45 52 56 57 57 57 55 53 60 64 63 67 66 64 75 83 78 69 61 53 46 40 37 38 39 43 48 50 47 40 31 21 12 8 6 6 6 6 6 6 6 7 7 7 8
13 11 10 9 8 9 10 10 12 13 14 15 16 17 18 18 18 18 19 21 21 22 23 23 23 24 24 24 24 23 21 18 15 11 8 8 10 17 26 34 41 46 51 54 53 52 51 49 51 52 51 59 65 64 65 66 64 69 71 62 53 47 42 39 37 39 43 46 51 52 47 37 28 20 13 9 7 6 6 6 6 6 7 7 7 8 9 9
Wind_Speed
20 19 18 17 16 15 13 12 12 12 11 11 11 11 10 9 7 7 6 6 6 5 5 5 6 7 7 7 7 7 7 7 7 7 6 6 6 6 6 5 6 7 8 9 9 10 10 10 11 12 13 15 16 16 17 17 18 19 20 21 22 23 23 24 24 25 25 23 22 21 20 19 19 20 21 22 23 25 27 29 30 30 32 34 36 38 38 39
22 21 20 19 18 17 16 14 14 13 12 12 12 12 12 11 10 9 8 7 7 6 6 5 6 7 8 8 8 9 9 9 9 8 8 7 7 7 7 7 7 8 9 10 10 10 10 11 12 13 14 15 16 17 18 18 19 20 21 22 22 23 24 24 24 23 22 20 19 19 20 20 20 21 23 24 26 27 29 30 32 33 34 35 36 38 39 40
23 23 22 21 20 19 18 16 15 15 14 14 13 13 13 13 13 13 11 10 9 8 8 7 7 7 8 9 9 9 10 10 10 10 9 8 7 7 7 8 8 9 9 10 10 10 11 12 13 14 15 16 17 17 18 18 19 20 21 22 21 22 22 22 21 20 19 18 18 19 20 21 22 23 25 27 29 30 31 31 33 34 35 35 36 38 41 42
23 23 23 22 21 20 19 18 17 16 16 16 15 15 15 15 15 15 15 13 12 11 10 9 8 8 8 9 10 10 11 12 12 12 11 10 9 8 8 8 9 9 10 10 10 11 11 13 14 15 16 17 17 17 18 18 18 19 19 20 20 19 19 19 19 18 18 18 19 20 21 23 24 26 28 29 31 33 33 33 34 35 36 37 38 38 40 42
22 23 22 21 21 21 20 19 18 18 18 18 17 17 17 17 16 16 16 16 15 14 13 12 10 10 10 10 10 11 11 12 13 13 13 12 11 10 9 9 10 10 10 10 10 11 12 14 15 16 16 17 17 17 17 17 17 18 18 18 18 17 17 17 17 18 19 20 21 22 23 25 26 29 30 32 33 34 35 35 36 37 37 39 40 41 40 41
21 22 22 21 21 21 20 20 20 20 20 19 19 19 19 19 18 18 17 17 18 17 16 15 13 12 11 11 11 11 12 13 13 13 14 14 12 11 11 11 11 11 11 11 11 12 13 14 15 16 16 17 17 17 17 17 17 17 17 17 17 17 17 17 18 19 20 22 23 24 25 27 28 31 32 33 34 35 36 36 37 38 40 40 42 43 41 41
20 20 20 20 20 20 21 21 21 22 22 22 21 21 22 21 21 21 20 19 19 19 19 18 16 15 14 13 13 12 12 14 14 14 14 14 14 13 12 12 12 12 12 12 12 12 13 14 15 16 16 16 16 17 17 17 17 17 17 17 17 18 18 19 19 20 22 23 24 26 27 29 30 33 34 34 35 35 36 37 38 39 41 42 42 43 43 41
20 20 20 20 20 21 21 22 22 23 23 24 23 23 23 24 24 23 22 21 20 21 21 20 19 17 16 15 15 14 13 14 15 15 15 15 15 14 14 13 13 13 12 12 13 13 14 14 15 16 16 16 16 16 17 17 17 17 17 17 18 19 19 20 21 22 23 25 26 27 29 30 32 34 35 36 37 37 37 38 39 41 42 43 43 43 42 41
20 20 21 21 21 22 22 23 24 24 25 25 25 25 25 25 25 25 25 23 22 22 23 23 21 20 17 16 15 15 14 15 16 16 16 16 16 15 15 14 13 13 13 13 13 14 14 15 16 16 16 16 16 16 16 17 17 17 18 18 19 20 20 22 23 23 25 26 27 29 30 31 33 34 36 38 39 38 38 38 40 42 43 43 42 42 42 42
20 21 21 22 22 23 23 24 25 26 27 27 26 26 26 26 27 27 26 26 25 24 24 24 24 22 19 17 16 16 16 16 17 17 17 17 17 17 16 15 15 14 14 14 14 14 15 15 16 16 17 16 16 16 17 17 17 18 19 19 20 21 22 23 24 25 26 28 29 30 31 32 34 36 37 39 40 40 39 39 41 42 42 42 41 42 42 43
20 20 21 22 22 23 24 25 26 27 27 27 27 27 27 28 28 28 27 27 27 26 26 27 25 24 21 18 17 17 17 16 17 18 18 19 19 18 17 16 16 16 15 15 15 16 15 16 17 17 17 17 17 17 17 18 18 19 20 20 22 22 23 25 26 27 28 29 30 31 32 34 36 37 37 39 41 41 40 41 42 42 41 42 42 43 44 45
18 19 20 21 22 23 24 25 26 26 26 27 27 28 28 29 29 28 28 29 29 28 28 28 27 25 23 20 19 18 18 17 18 18 19 19 19 18 18 18 18 17 17 17 16 17 16 17 17 18 17 17 18 18 18 19 20 21 21 21 23 24 24 26 28 29 30 31 32 33 33 34 37 38 38 40 40 41 41 42 41 41 41 42 44 45 46 47
16 18 19 20 21 22 23 24 24 24 25 26 27 27 28 28 29 28 28 29 29 28 28 28 28 26 24 22 20 19 19 18 18 19 20 20 19 19 18 18 19 19 18 17 17 17 17 18 18 18 18 18 19 19 20 20 20 21 23 23 24 25 25 27 29 30 32 33 34 35 35 36 38 40 41 41 40 41 42 43 42 42 42 43 45 46 47 49
14 15 16 18 19 20 21 22 22 23 24 25 26 27 27 27 27 27 27 27 28 27 27 28 28 26 25 24 22 20 19 19 20 20 20 20 19 19 19 19 20 20 19 18 18 18 18 18 19 19 19 19 20 20 21 22 22 22 24 25 26 27 28 29 31 32 34 35 36 37 37 37 38 41 43 42 41 43 44 44 44 45 45 46 46 48 49 50
12 13 14 15 17 18 20 21 21 21 22 23 23 24 24 24 25 25 25 26 26 26 26 26 27 27 26 25 23 22 20 20 21 21 21 20 20 19 19 20 20 20 19 18 18 18 19 19 20 20 20 21 21 22 22 23 24 24 25 27 28 30 31 32 33 34 35 36 37 38 38 38 38 41 43 43 42 44 45 45 46 46 48 49 49 50 51 51
11 12 13 15 16 18 19 21 21 20 20 20 20 20 21 22 22 23 24 24 24 24 24 24 25 26 25 24 24 22 22 21 21 21 21 21 20 19 19 20 20 20 19 19 19 19 20 20 21 21 22 23 23 23 24 25 26 26 27 29 30 32 33 34 34 35 37 37 38 39 39 38 38 42 44 43 44 44 45 45 46 48 49 50 50 51 51 51
11 12 14 15 17 19 20 21 21 20 19 20 19 19 20 20 21 22 22 22 22 22 22 22 24 25 24 23 23 22 22 22 22 22 21 21 20 19 19 19 19 19 19 19 19 20 21 21 22 22 23 24 25 25 26 27 29 30 30 31 32 34 35 37 37 37 38 38 39 40 39 38 38 42 44 44 45 46 46 47 48 50 51 51 51 51 51 51
12 14 15 17 19 20 22 22 22 21 19 20 20 20 20 20 21 22 21 21 20 20 21 21 21 21 20 20 21 21 22 22 22 22 21 20 20 19 19 19 19 19 19 20 20 21 21 22 23 23 24 25 26 27 28 29 30 31 32 33 34 35 36 38 39 39 40 40 40 41 40 39 40 43 44 44 46 47 48 50 51 53 53 52 51 52 51 50
15 16 17 19 20 22 23 24 25 23 21 21 21 22 22 21 21 21 21 20 19 19 19 19 19 18 17 17 19 20 20 21 21 21 21 20 20 19 19 19 19 19 19 20 21 22 22 23 24 25 25 26 27 28 30 31 31 32 33 34 35 37 38 39 40 40 41 41 41 42 41 40 41 44 45 46 47 48 50 52 53 53 52 52 52 51 51 49
16 17 18 19 20 22 23 24 25 25 24 22 22 23 23 23 22 21 21 20 19 19 18 18 18 18 18 16 16 18 19 20 20 20 20 20 19 19 19 19 19 19 20 21 21 22 23 23 25 26 27 28 28 29 31 32 33 33 34 35 37 39 40 40 41 41 41 42 42 43 42 41 43 45 46 48 49 50 52 53 53 53 52 51 51 51 50 48
15 16 17 18 19 21 22 24 25 26 25 24 23 23 24 24 23 21 21 20 20 20 18 17 17 16 17 16 16 18 19 19 19 20 20 20 19 19 19 19 20 20 21 22 22 22 23 24 26 27 28 29 29 31 32 33 34 34 35 37 38 40 42 42 42 42 42 43 43 44 44 43 45 47 49 50 51 52 53 53 53 52 51 51 51 50 48 46
15 16 17 18 19 21 22 23 25 26 26 26 24 23 23 24 23 22 21 20 20 20 19 18 17 16 16 16 17 19 19 19 19 19 19 19 19 19 19 20 20 20 21 22 22 23 24 24 26 28 29 30 30 32 33 34 35 36 37 38 40 42 43 43 44 44 44 45 45 46 47 47 48 49 51 51 52 52 53 53 52 50 49 51 51 49 46 45
16 17 18 19 20 22 23 24 25 26 26 26 24 23 23 23 23 22 20 20 20 21 20 19 19 18 17 17 18 19 19 18 18 18 18 18 18 19 19 20 20 20 21 22 23 23 24 25 27 29 30 31 32 32 34 35 37 38 39 40 41 43 44 45 45 46 46 47 49 50 50 50 50 51 52 52 52 52 53 52 50 48 49 50 48 46 44 44
17 19 20 22 23 24 24 25 26 26 26 25 24 23 22 22 22 21 20 20 21 21 21 20 20 19 18 18 18 18 18 18 18 18 18 18 18 20 20 21 21 21 21 22 23 24 25 27 29 31 31 32 33 33 35 36 38 40 41 42 42 44 45 46 47 47 48 50 51 52 52 52 52 52 52 52 52 53 53 51 49 48 49 48 46 45 44 43
19 21 22 23 24 25 26 26 26 26 25 24 24 23 21 20 21 21 20 20 20 20 20 20 20 19 18 18 18 18 18 18 18 18 19 20 20 21 21 22 22 21 22 24 25 25 26 28 31 32 33 34 34 35 37 38 40 42 43 44 45 45 46 48 49 50 51 51 52 52 53 53 52 52 51 51 52 53 51 50 49 48 48 47 46 44 44 43
20 21 22 23 24 24 25 24 24 24 23 23 23 21 19 19 21 21 20 19 21 20 19 18 18 18 18 18 17 17 17 18 18 19 20 21 21 21 22 22 23 23 24 25 26 26 27 29 32 33 34 35 36 37 38 40 42 43 44 45 47 47 48 49 51 52 52 52 52 52 53 52 50 48 48 49 51 51 50 49 48 48 47 46 45 44 44 43
19 21 22 22 21 21 20 19 20 20 20 20 20 19 19 19 22 22 20 19 21 21 19 19 18 17 17 16 17 18 18 19 19 19 20 21 22 23 23 24 24 25 26 27 28 28 29 32 34 35 36 37 38 38 40 42 44 45 46 47 48 49 50 51 52 52 52 52 52 51 52 52 49 47 47 49 51 50 49 48 47 46 45 45 44 44 44 43
20 21 20 18 17 15 14 14 15 16 16 16 16 17 18 20 23 23 20 19 20 19 19 19 19 20 19 17 17 18 19 21 20 21 22 23 24 25 25 25 25 26 28 29 30 30 32 34 36 37 37 38 39 40 42 44 46 47 47 48 49 50 51 51 52 52 53 53 52 51 52 51 49 47 47 50 50 48 46 45 45 45 44 44 44 44 44 44
20 18 17 16 13 11 11 11 11 12 13 12 13 14 16 20 24 22 20 19 17 17 17 18 19 20 20 19 18 18 19 21 22 22 23 24 25 25 26 26 27 28 30 31 32 33 35 36 37 38 39 40 41 42 44 45 47 48 49 50 50 51 51 51 52 52 53 53 52 52 53 52 50 46 46 48 47 44 44 43 43 43 42 43 44 44 45 45
18 15 14 13 10 10 12 11 9 9 8 8 10 12 15 20 22 20 19 19 17 16 16 16 17 18 18 18 18 19 20 21 22 22 24 25 26 27 27 28 29 30 32 33 34 35 37 38 39 40 41 41 42 44 46 47 49 49 50 50 50 50 50 51 52 52 53 53 53 53 53 54 50 45 44 46 43 41 42 43 42 42 42 43 44 45 45 46
14 11 12 13 9 10 12 12 10 7 6 7 10 13 14 15 15 15 16 16 14 13 13 12 12 13 14 15 17 18 19 20 21 22 23 25 26 28 29 30 31 32 33 34 36 37 38 39 40 41 42 43 44 45 47 49 49 50 50 50 50 50 51 51 53 53 53 54 54 53 52 52 47 42 42 42 40 40 41 42 41 41 42 44 45 45 46 47
12 9 11 14 11 9 10 12 10 4 5 9 11 10 8 5 5 7 8 8 7 7 8 9 10 12 14 15 16 18 19 20 22 23 24 26 27 28 30 32 33 34 35 37 38 39 40 40 41 42 43 43 45 46 48 49 49 49 48 48 50 50 50 52 52 52 51 52 52 50 49 47 43 41 40 39 39 41 42 41 41 42 43 44 45 46 47 49
9 8 11 14 10 6 7 9 10 7 1 6 6 4 4 3 1 1 2 3 4 6 8 9 11 13 14 15 17 18 20 21 23 24 26 27 28 29 31 33 35 36 37 39 40 40 41 41 42 43 43 44 45 47 48 49 49 49 49 49 50 50 51 52 51 50 49 49 49 47 45 43 41 40 40 39 40 42 41 41 41 42 43 44 45 47 49 52
8 8 10 12 9 6 5 6 9 9 5 1 3 5 3 1 0 1 3 5 6 8 10 11 13 15 16 17 19 20 21 22 23 25 26 28 29 30 31 33 34 36 37 39 40 41 42 42 43 43 44 44 46 47 47 48 49 50 50 50 50 49 49 49 49 48 47 46 46 45 42 41 41 42 42 41 41 41 41 42 43 43 44 45 48 50 53 54
6 7 8 9 9 8 7 7 9 10 9 7 5 3 1 2 3 4 5 7 8 10 12 13 14 16 18 19 20 22 22 23 24 25 26 28 29 30 31 32 33 35 37 38 40 41 43 43 44 44 45 45 46 47 47 48 49 50 49 49 48 46 46 46 45 45 44 44 44 43 42 43 44 43 43 42 42 42 43 44 44 45 46 48 51 53 55 56
4 5 7 8 8 8 9 9 8 9 9 8 6 5 4 4 5 6 8 9 10 12 14 15 16 17 19 19 21 22 23 24 25 26 26 28 29 30 31 32 34 35 37 38 40 41 42 43 43 43 43 44 46 46 47 48 49 49 48 47 46 45 44 44 44 43 44 45 44 42 43 44 46 46 45 45 44 44 45 45 46 47 49 51 53 55 56 57
4 5 5 7 7 7 8 9 9 8 8 8 8 8 7 6 7 7 8 10 11 13 14 15 17 18 19 19 20 22 23 24 25 26 27 27 29 30 32 33 34 35 37 38 39 40 42 42 41 41 42 43 45 46 47 47 47 46 45 43 43 43 43 44 45 44 44 45 44 42 42 43 45 47 47 47 47 47 47 48 49 50 51 52 53 55 56 57
3 4 4 5 6 7 7 8 9 9 10 10 10 10 9 9 9 9 10 11 13 14 15 16 17 18 19 20 20 22 23 24 24 26 27 28 29 31 32 33 34 35 36 37 38 39 42 43 42 42 43 44 46 46 45 45 44 42 41 40 41 42 42 44 45 45 45 46 45 43 43 44 45 47 48 49 50 51 51 51 51 51 51 52 54 56 58 60
4 4 4 4 5 6 7 9 9 10 10 10 11 10 10 10 11 11 12 13 14 15 16 17 17 18 19 20 20 21 23 24 25 26 28 29 30 31 31 32 33 34 35 37 38 39 42 44 44 43 45 46 45 44 44 43 42 41 40 40 41 41 42 43 43 43 44 45 46 46 46 47 48 48 49 51 53 53 53 52 51 51 52 55 57 60 62 64
5 4 3 5 6 7 9 10 11 11 11 11 11 11 11 11 12 13 13 14 15 16 16 17 18 18 19 20 21 22 23 25 27 28 28 29 30 30 31 32 33 34 36 38 39 41 43 45 46 45 45 45 44 43 43 42 41 41 42 42 42 41 41 42 41 41 42 44 45 47 48 48 48 48 50 52 54 53 52 51 52 54 56 59 61 64 66 68
4 3 3 5 7 9 10 12 12 11 11 11 11 11 11 12 12 13 14 14 15 16 17 17 18 19 20 21 22 23 24 25 26 27 28 28 30 30 31 33 34 36 38 39 40 42 44 46 46 45 44 44 42 42 43 42 41 41 42 43 42 42 42 42 42 42 43 45 46 48 50 48 46 49 52 53 55 54 53 53 55 57 60 62 65 68 70 71
1 2 4 6 8 9 11 12 12 11 11 11 11 11 12 12 13 13 14 14 15 16 17 18 19 20 21 22 23 24 24 24 25 27 28 29 30 32 33 35 36 38 40 41 42 44 45 46 46 44 43 41 40 41 42 41 40 41 41 41 40 41 41 42 44 44 46 48 47 50 53 50 47 50 54 55 56 56 55 57 59 61 63 65 68 70 72 74
2 2 4 7 9 10 12 12 12 11 11 11 11 12 12 12 13 14 15 16 17 18 19 20 21 22 22 22 23 23 24 24 25 27 29 30 32 34 35 37 38 39 41 42 44 45 46 46 45 43 41 40 39 39 40 40 39 40 41 39 38 38 40 42 44 46 48 49 48 50 52 49 48 51 54 56 57 57 58 60 62 64 65 67 70 72 75 77
3 3 5 7 9 11 12 12 11 11 11 12 12 12 13 14 15 16 16 17 18 19 20 20 21 21 21 22 23 24 25 26 28 29 31 32 34 36 37 38 39 41 43 44 45 45 45 44 44 43 42 40 39 40 41 41 40 40 41 40 39 39 41 43 45 47 50 50 49 50 50 48 47 50 52 55 56 57 59 62 64 65 67 69 72 75 77 79
5 4 6 8 10 12 12 12 11 12 12 12 13 14 15 15 16 17 18 18 19 19 19 20 20 21 22 23 24 26 27 29 30 32 33 35 36 38 38 39 41 43 44 45 45 44 42 41 41 42 42 41 40 41 43 42 41 40 41 42 42 42 43 45 46 48 49 50 50 50 50 48 47 49 53 56 58 59 61 63 64 66 69 72 75 78 80 81
4 4 6 9 11 12 12 12 12 13 13 14 15 16 16 17 18 18 19 18 18 19 19 20 21 22 23 25 26 28 30 31 33 34 36 37 38 39 40 41 43 44 45 44 43 42 40 38 38 39 40 40 41 41 42 43 42 41 42 43 44 45 46 47 47 48 49 50 49 48 49 50 49 52 57 59 60 62 64 65 66 69 72 75 78 80 81 82
3 4 7 9 11 12 12 12 13 14 15 16 16 17 17 18 18 18 18 18 18 19 20 22 23 25 26 27 29 30 32 33 34 36 37 38 39 40 41 43 44 44 43 42 41 40 38 37 37 37 37 38 40 40 41 43 43 44 44 45 46 46 46 47 47 46 47 49 49 47 49 52 53 56 60 61 62 65 67 68 70 73 76 78 80 81 81 81
3 6 9 10 11 12 12 14 15 16 16 17 17 17 17 17 17 17 18 19 20 21 23 25 26 28 29 30 32 33 34 34 34 36 37 38 40 41 42 43 42 42 41 39 38 38 37 36 36 36 35 36 39 40 42 44 44 45 46 46 47 47 47 46 46 45 46 48 49 49 51 54 57 60 62 63 65 68 70 72 74 76 78 79 80 80 80 79
6 8 9 10 11 12 13 15 16 16 16 16 16 16 17 17 18 18 19 21 22 24 26 27 29 30 32 33 34 35 35 35 36 37 38 39 40 41 41 41 40 38 37 37 37 37 37 36 37 38 36 37 39 41 43 45 45 44 45 45 46 47 47 46 45 45 47 49 51 53 55 57 60 63 64 65 68 70 73 75 76 77 79 79 79 79 78 77
7 8 9 11 12 13 14 15 15 16 16 16 16 16 17 18 19 20 22 23 25 27 29 30 32 33 34 35 35 35 36 37 37 38 39 39 40 40 39 38 36 35 35 36 36 37 38 38 39 41 40 39 41 42 43 45 45 44 44 45 46 47 47 47 47 47 49 52 54 56 58 59 61 64 66 68 71 73 75 76 76 78 79 79 77 76 75 72
8 9 11 12 13 14 14 14 15 15 15 15 16 18 19 20 21 23 25 27 29 31 32 33 34 34 35 35 36 36 36 37 38 38 39 38 38 37 36 36 36 36 36 37 38 39 40 41 42 43 43 42 43 45 45 46 47 45 44 45 46 47 48 49 50 51 53 56 57 59 60 62 64 66 68 70 72 74 76 76 78 79 79 78 76 74 71 68
10 11 12 13 13 14 14 14 14 15 15 17 18 20 22 23 25 27 29 31 32 33 34 34 34 34 34 34 35 35 36 36 37 37 37 36 36 35 35 36 36 37 37 38 40 41 42 43 44 45 45 44 45 46 47 47 48 46 44 45 47 49 50 51 53 55 57 59 60 60 62 65 68 69 70 71 72 75 77 78 79 79 78 77 75 72 68 66
Wind_Direction
240 244 247 250 253 255 258 261 264 266 268 268 268 267 268 271 277 285 292 302 309 313 311 303 293 283 277 278 281 275 259 247 243 245 250 258 264 269 275 281 290 295 299 302 302 306 310 313 315 314 313 312 310 308 305 302 298 296 293 292 292 292 290 289 290 289 289 289 288 287 286 283 283 285 284 284 285 286 289 291 293 295 294 293 293 293 292 292
241 244 246 249 252 255 258 261 264 266 268 270 270 269 267 267 269 274 277 283 291 296 296 293 285 279 273 269 273 276 269 253 243 242 248 255 264 271 276 278 284 289 294 298 300 304 307 309 311 311 311 310 308 307 305 303 300 297 294 293 293 291 290 289 288 288 288 288 287 286 284 282 283 284 286 286 286 288 291 294 295 295 294 293 293 293 292 291
240 244 246 248 251 254 257 259 262 264 267 270 271 270 268 265 263 265 267 269 274 279 283 283 277 269 265 263 263 268 271 263 250 243 245 251 258 266 272 275 280 287 293 296 299 301 305 308 310 311 311 310 309 308 305 302 299 296 295 294 292 290 290 290 289 288 288 287 286 285 284 285 286 287 287 288 289 290 292 295 295 294 294 294 293 293 293 292
239 243 245 248 250 252 255 258 261 264 266 269 270 271 271 269 265 262 261 263 265 268 271 273 273 266 259 258 257 259 265 266 258 250 248 250 254 261 267 272 276 284 292 296 298 300 303 308 311 313 313 312 311 309 306 303 300 297 296 295 293 292 290 290 290 289 289 288 287 287 287 289 290 289 289 290 291 292 293 294 294 293 294 293 292 292 293 293
238 242 245 247 249 251 254 257 260 263 265 267 269 271 271 271 269 266 263 262 263 265 266 267 269 268 262 256 253 255 259 262 261 256 253 252 255 260 264 268 273 281 291 298 300 300 303 308 312 315 315 314 313 310 307 304 302 300 298 296 294 293 292 292 291 289 290 290 290 290 291 292 292 291 290 292 293 294 294 294 294 294 294 293 293 292 292 293
236 240 243 246 249 251 254 257 260 262 264 265 267 268 268 269 268 268 266 264 264 265 266 267 269 271 268 261 254 252 256 260 263 261 256 254 256 260 263 267 273 281 291 300 302 300 303 309 314 316 315 314 313 311 307 305 303 301 298 296 294 293 292 292 291 291 291 291 292 293 293 293 293 292 291 292 293 294 295 296 296 296 295 295 294 294 294 295
235 239 242 245 248 251 255 258 261 263 263 263 264 265 266 266 266 266 266 265 263 263 264 266 268 270 272 267 259 253 253 257 262 263 258 256 256 260 264 269 275 282 289 298 301 300 302 310 315 316 315 315 314 312 308 304 301 299 296 294 293 292 292 292 292 293 293 293 294 295 295 294 294 292 292 292 293 295 296 297 297 297 296 296 296 297 297 298
236 239 242 245 248 251 255 257 260 262 263 263 263 264 264 265 265 265 265 264 262 261 262 263 264 266 270 269 262 256 253 254 258 260 258 256 256 260 264 270 276 281 287 295 298 298 302 310 314 315 316 315 313 311 307 304 301 299 296 294 293 292 292 292 293 294 295 295 295 296 295 294 294 293 293 294 294 296 298 299 299 298 297 298 298 299 300 301
236 239 242 245 248 251 254 256 258 259 261 262 263 264 264 265 265 265 266 265 263 260 260 261 263 263 266 267 261 255 253 252 254 256 257 255 255 258 263 268 275 280 285 291 295 298 302 308 312 313 313 312 312 309 307 304 302 301 298 296 295 295 295 295 295 296 297 296 296 297 296 296 296 295 296 297 297 298 300 300 299 299 299 300 300 301 301 302
237 240 242 245 248 251 253 255 257 258 259 260 262 263 265 266 266 266 266 266 264 261 257 257 260 262 263 264 259 255 253 251 252 254 255 256 255 256 260 266 272 279 284 288 292 296 300 305 309 309 309 310 310 308 307 305 304 302 300 299 298 298 298 297 297 298 298 297 297 299 299 298 298 298 298 298 299 300 301 300 300 300 300 301 301 302 302 303
238 241 243 246 248 251 254 256 257 259 260 261 262 262 263 264 265 266 266 266 265 262 256 252 254 258 261 261 258 255 253 251 251 253 255 256 256 256 260 265 270 277 282 287 290 293 298 302 304 304 305 307 308 307 306 305 304 302 302 302 300 299 300 299 299 300 300 299 299 301 302 301 299 300 300 300 300 302 302 301 301 301 301 301 302 302 303 305
239 243 246 249 251 254 257 259 262 264 265 265 264 262 260 260 261 262 263 264 264 261 255 249 250 254 257 259 258 256 254 252 252 253 255 257 258 259 261 265 269 274 280 285 289 292 295 298 298 300 303 305 305 305 304 304 304 303 302 303 301 301 302 302 301 302 301 300 301 301 302 303 300 300 300 300 301 302 301 301 302 302 302 302 303 303 305 307
241 245 249 253 256 259 261 264 267 269 270 269 267 264 261 258 257 257 259 261 262 261 254 248 249 252 255 257 258 256 253 252 252 253 255 257 259 261 262 264 268 272 278 283 287 290 292 293 295 297 300 302 301 302 303 302 302 302 302 301 301 300 301 301 300 301 301 301 302 301 303 304 302 300 300 301 302 302 301 302 302 302 302 303 304 306 307 308
243 247 251 255 258 261 264 267 269 272 273 272 270 266 262 259 256 256 257 259 260 259 254 250 251 253 255 257 256 255 252 251 252 253 255 257 258 260 262 264 266 270 275 280 284 287 288 290 292 295 297 298 298 300 301 301 301 302 302 302 302 301 300 301 301 302 302 303 303 302 304 305 304 302 301 303 305 303 303 305 305 304 304 304 306 308 308 308
247 251 254 257 260 263 266 269 272 275 276 274 270 265 260 255 253 253 254 257 258 258 256 254 254 254 256 257 254 252 250 250 251 253 254 256 257 258 261 263 265 268 273 278 282 284 287 289 291 294 295 296 297 299 299 299 299 301 302 302 301 301 301 301 303 305 304 304 304 304 305 306 305 303 303 305 305 305 306 307 306 306 306 307 308 309 309 308
251 255 258 261 262 264 267 269 273 277 278 273 268 262 256 252 250 251 252 255 257 258 258 257 257 256 256 255 252 248 247 248 250 252 254 255 256 257 260 262 265 268 272 276 280 283 286 288 291 293 294 295 296 297 298 298 298 299 299 300 301 302 303 303 304 306 305 305 305 305 306 307 306 305 305 306 305 305 307 307 307 306 307 308 309 309 308 307
259 262 265 266 268 269 269 271 273 276 275 270 265 257 251 249 250 251 253 255 256 258 259 258 257 256 253 250 247 243 242 245 249 251 254 255 256 257 259 262 264 268 272 275 279 282 285 288 290 292 293 295 295 296 298 300 301 302 302 304 305 306 306 305 306 307 306 306 306 306 307 308 308 306 306 307 306 307 307 307 307 307 308 309 310 309 308 306
272 273 274 274 275 275 274 273 272 272 270 266 262 255 249 246 247 251 253 254 256 258 259 257 255 252 248 244 239 237 239 243 247 250 253 255 257 258 259 261 264 268 272 276 279 282 285 288 289 291 292 294 296 297 299 300 302 303 304 306 306 307 307 307 307 308 307 307 307 307 308 309 309 307 307 308 308 308 308 308 308 308 309 310 310 308 307 306
277 277 278 277 276 276 275 273 271 269 266 262 259 255 251 247 247 250 253 254 256 255 253 252 251 246 240 238 236 236 239 243 247 250 253 255 258 259 261 263 265 269 273 276 280 283 285 288 289 290 291 293 295 297 299 301 303 304 305 306 306 307 308 307 308 308 308 308 308 308 309 310 309 308 308 308 308 308 308 308 309 309 310 310 310 308 306 305
278 277 276 275 275 274 274 273 272 270 266 261 258 255 253 251 250 252 254 255 253 250 247 247 247 239 231 231 237 239 241 245 248 251 253 255 258 261 263 265 268 272 275 277 280 283 285 288 289 290 293 295 297 299 301 303 304 305 306 307 308 308 307 308 308 309 308 308 308 308 309 310 309 308 308 308 308 309 309 309 309 309 310 310 308 306 304 305
278 277 278 277 276 275 274 273 272 270 268 263 259 256 254 253 252 253 255 253 248 243 242 243 244 238 229 231 241 245 245 247 249 251 253 255 259 262 265 268 270 273 276 279 281 284 287 289 291 293 296 298 300 302 303 304 305 306 307 308 309 309 308 308 309 309 309 308 309 308 309 311 309 309 309 309 309 309 309 309 309 310 310 308 305 304 305 305
285 285 285 283 281 279 277 273 270 268 266 264 260 258 255 253 252 253 255 252 244 239 237 238 240 240 239 242 247 249 249 249 250 252 254 258 262 266 268 270 272 274 278 281 283 286 288 291 292 294 297 299 301 302 303 304 305 307 308 310 311 309 308 309 309 309 309 309 309 309 310 311 310 310 309 309 310 310 309 310 310 310 308 305 303 304 305 304
294 293 291 289 285 282 279 275 271 266 264 263 261 258 255 253 252 253 255 250 241 238 238 238 240 244 248 250 250 251 252 253 254 256 258 262 267 269 272 273 275 278 281 283 286 288 291 293 294 295 297 299 302 304 305 305 306 307 309 311 311 309 309 309 309 309 309 310 310 310 310 310 310 309 309 310 311 310 309 310 310 308 305 303 303 305 304 302
302 299 296 293 288 283 278 274 271 267 263 262 260 256 253 252 252 253 255 248 238 236 238 238 241 246 250 253 253 254 255 255 256 257 260 264 268 271 274 275 277 281 284 285 287 289 293 295 296 298 300 302 304 305 305 305 306 308 310 311 309 309 309 309 309 309 309 309 309 310 310 310 311 310 310 311 310 309 309 309 308 306 303 302 304 304 303 302
307 303 300 296 291 286 279 273 270 267 264 261 257 253 249 249 251 253 254 247 236 234 238 239 242 245 250 253 255 256 255 256 256 259 264 267 270 272 274 277 279 282 285 287 288 292 295 297 298 300 303 304 305 305 305 306 307 309 310 310 309 309 309 309 309 309 309 309 310 311 310 311 312 311 310 310 309 308 308 308 307 305 303 304 305 304 304 303
311 309 305 301 297 290 282 276 271 268 265 261 255 249 244 243 247 251 254 248 237 233 237 240 242 245 248 252 255 257 257 258 261 264 268 269 271 273 276 280 282 284 286 287 290 294 297 298 300 302 304 305 305 305 306 307 308 309 310 309 309 309 309 308 308 308 308 309 310 311 310 310 311 311 310 309 307 307 308 308 306 304 305 306 306 306 305 305
319 315 311 307 303 296 288 279 271 267 263 258 250 243 239 240 245 249 252 248 241 237 235 237 241 244 247 251 255 258 261 263 266 268 269 270 274 277 280 282 283 286 288 289 291 295 298 300 302 304 305 305 306 306 306 307 308 309 309 308 308 308 308 308 308 307 308 308 310 310 309 308 309 310 311 310 308 309 309 308 305 305 307 308 307 307 306 305
328 323 320 319 316 311 303 291 277 270 262 252 242 236 235 239 243 246 247 245 245 244 239 238 242 245 247 251 255 261 266 267 267 269 270 273 277 279 282 283 284 287 290 291 292 296 299 301 304 305 305 306 306 306 306 307 308 308 308 308 307 307 307 307 307 307 307 308 309 308 306 307 309 313 314 311 311 312 310 307 305 307 309 308 307 306 305 305
336 333 333 334 333 333 329 318 300 283 265 244 232 231 236 240 240 240 241 242 247 250 245 244 245 247 250 254 259 266 270 270 270 271 272 275 278 280 282 284 286 289 290 290 292 296 300 302 304 305 305 306 307 306 306 306 307 307 307 307 307 306 306 307 306 306 306 306 307 306 306 308 312 317 316 312 312 311 308 306 307 309 309 307 306 305 305 304
342 347 354 355 353 346 336 326 314 298 272 237 225 233 242 241 234 233 239 243 249 254 251 250 249 249 255 261 265 270 272 273 273 274 275 277 280 282 283 284 286 289 290 291 294 298 301 303 304 305 305 306 306 306 306 306 307 307 306 306 306 306 306 306 305 305 305 306 306 308 309 311 315 318 314 311 312 309 306 305 307 308 306 304 303 303 304 303
351 2 9 3 348 335 327 316 306 287 262 235 229 235 236 231 227 233 243 247 253 258 256 257 257 258 265 267 269 272 274 276 278 279 281 282 284 285 285 287 288 289 291 292 295 298 300 302 304 304 306 306 306 306 305 305 306 305 305 305 305 305 305 305 305 305 307 308 310 311 311 312 315 316 312 310 309 305 303 304 305 305 303 302 303 303 303 301
358 2 360 352 338 322 316 319 325 308 240 219 213 216 206 187 206 232 242 245 250 257 262 266 266 267 270 271 274 277 280 283 284 285 286 286 287 287 288 289 290 291 293 294 296 298 300 302 304 304 305 305 305 304 304 304 304 304 304 305 304 305 305 305 306 307 309 310 311 312 311 312 314 312 309 308 305 303 303 304 305 304 303 303 304 303 301 300
355 351 354 358 354 335 318 333 359 13 281 203 175 139 110 98 92 230 251 256 258 265 270 271 270 272 275 278 283 285 286 287 288 288 289 289 290 291 292 294 294 295 297 298 299 301 302 303 304 305 305 305 304 304 303 304 304 304 305 305 306 306 306 306 308 309 310 311 310 310 310 310 310 308 307 305 303 302 303 305 304 303 304 304 303 301 300 299
353 353 3 11 10 0 352 359 12 19 13 29 87 79 81 78 347 285 278 270 269 271 272 274 276 280 282 284 287 288 289 290 291 292 293 294 295 295 296 297 298 299 300 301 301 302 303 303 304 305 306 305 305 304 304 305 305 306 307 307 307 307 307 308 309 310 311 310 309 310 310 308 307 307 306 305 304 305 306 307 306 306 307 306 303 302 300 300
357 0 10 18 16 13 17 19 21 24 23 19 20 24 356 305 285 279 280 276 276 277 279 281 283 285 287 288 290 291 292 294 295 297 298 299 300 300 300 300 301 301 302 302 302 303 304 304 305 306 306 306 305 305 306 306 306 306 307 307 307 307 307 309 310 310 310 308 308 309 308 306 306 307 307 307 309 310 309 307 308 308 307 305 303 302 302 303
3 4 13 23 25 22 19 19 26 27 20 12 7 355 335 316 300 294 291 288 288 287 287 288 289 290 292 293 295 296 297 299 301 301 302 302 302 302 302 303 303 302 302 302 302 303 303 304 306 306 307 307 306 307 307 307 307 307 307 308 309 309 309 310 310 310 309 308 308 309 308 308 309 310 310 312 312 310 308 308 309 309 307 306 305 305 306 307
11 8 22 32 30 23 15 11 13 9 356 351 351 349 344 332 320 312 304 300 299 298 296 296 296 297 298 299 301 301 301 303 303 303 303 303 303 303 303 303 303 303 303 303 304 304 303 304 306 307 307 307 306 307 307 307 307 308 309 310 310 310 310 310 310 309 308 307 308 310 309 309 309 309 311 312 310 308 309 310 310 309 309 308 307 307 307 307
35 27 39 39 25 14 7 2 357 351 344 341 342 340 336 331 324 320 317 313 310 307 305 303 303 303 303 304 304 304 304 303 303 304 303 303 303 303 303 303 303 304 304 305 305 305 305 304 306 307 307 307 307 308 307 307 308 309 310 311 310 310 310 309 309 310 309 309 309 311 310 309 308 310 311 311 309 310 311 312 311 311 310 308 306 306 306 306
69 57 55 39 20 7 1 357 352 349 344 341 340 336 331 329 326 324 323 320 316 313 311 309 308 307 306 306 305 304 304 304 305 304 304 304 304 304 305 305 306 306 306 307 307 307 307 307 307 309 309 308 308 308 308 307 308 310 311 311 310 310 309 309 310 310 310 310 311 312 312 311 312 314 313 311 310 312 313 312 311 310 309 307 307 307 307 308
91 70 52 30 16 6 1 357 353 350 346 342 339 336 331 329 327 326 324 321 317 315 313 311 310 308 306 306 305 305 305 305 304 305 305 305 306 307 307 307 307 308 308 308 309 309 309 309 309 310 310 309 309 308 307 308 310 312 312 311 311 310 309 309 309 309 309 309 310 311 311 311 314 313 310 308 309 311 310 310 310 309 309 309 310 309 310 311
109 59 37 24 14 6 0 356 352 349 346 342 338 334 331 329 327 325 322 319 316 314 312 310 308 307 306 306 305 306 306 305 305 306 307 308 308 309 309 308 309 309 309 310 311 311 311 310 311 312 311 310 310 309 308 309 311 312 311 312 312 312 313 312 312 312 311 310 311 310 309 312 314 309 306 308 309 309 309 310 310 310 311 311 311 311 311 311
142 33 21 14 7 360 353 350 348 346 343 340 336 332 329 326 323 320 318 316 314 313 312 310 310 309 308 307 307 308 308 309 309 308 309 309 309 310 310 310 310 311 311 311 312 312 312 311 312 313 311 310 310 308 307 308 309 309 310 312 314 315 316 315 313 313 311 310 312 310 309 314 314 308 307 310 310 310 312 313 312 312 313 313 312 311 311 311
253 348 359 358 357 351 346 345 344 342 339 336 332 328 325 322 319 317 317 315 314 314 313 312 311 310 311 311 311 312 312 312 311 310 311 311 312 312 312 311 311 311 312 312 313 314 313 312 312 312 310 310 309 307 307 308 310 311 313 315 316 316 315 313 312 311 310 311 311 309 311 314 312 309 310 311 310 312 314 313 313 314 313 312 311 311 310 310
264 316 341 346 346 341 340 341 339 336 334 331 328 324 321 319 317 316 316 315 315 315 313 313 313 314 314 315 315 314 314 313 313 312 312 313 313 313 312 312 312 312 313 314 315 315 314 313 313 312 312 313 312 311 311 312 315 316 316 317 317 316 314 312 311 310 310 311 310 309 311 312 310 310 311 310 311 314 313 312 313 313 312 311 310 309 309 310
265 300 327 335 336 334 335 337 335 331 328 326 323 321 319 318 316 316 316 316 317 316 315 316 317 317 317 317 316 315 314 314 314 313 313 313 313 312 312 312 312 313 314 314 314 314 313 313 313 313 314 315 315 314 314 315 317 319 318 317 317 316 314 312 311 310 310 311 311 311 311 311 311 311 309 310 312 313 311 312 312 312 311 310 309 310 311 312
268 298 321 327 328 329 329 330 329 326 324 322 321 320 319 318 317 318 318 318 319 319 319 319 319 318 318 317 316 316 315 315 314 313 313 312 312 311 311 312 313 314 314 314 313 313 313 314 313 312 314 315 315 317 317 316 318 318 317 316 316 315 314 313 311 311 311 311 312 312 311 310 312 311 309 311 312 311 311 312 312 312 311 311 312 313 314 313
283 307 318 320 321 322 322 323 323 321 320 320 319 319 319 319 319 320 320 321 322 322 321 320 319 318 317 317 316 315 315 314 313 312 312 311 311 311 312 312 313 314 314 313 313 313 313 314 313 313 315 316 316 317 317 316 317 317 317 316 316 315 313 312 312 312 311 311 311 311 310 311 312 310 310 312 312 312 313 313 313 314 313 313 314 315 314 313
317 313 315 316 317 318 320 320 320 319 318 318 319 320 320 320 321 321 321 321 322 321 320 319 318 317 316 315 314 313 313 312 311 311 310 310 311 311 312 313 313 313 313 313 314 313 314 316 315 316 318 318 317 317 316 314 316 316 316 316 315 314 313 312 312 312 310 309 309 310 310 312 313 312 313 314 314 314 315 315 316 315 314 315 315 314 313 313
317 312 314 316 317 318 318 318 318 318 319 320 321 322 323 323 322 321 320 320 320 319 318 317 316 315 314 313 313 313 312 311 311 310 310 310 311 311 312 313 314 315 315 315 316 316 317 318 317 317 319 319 316 315 314 313 315 315 315 315 314 312 312 312 311 310 309 309 310 311 313 315 315 314 315 316 316 316 316 317 316 315 314 315 315 313 313 313
317 315 315 315 315 317 317 318 319 321 322 323 323 324 324 322 320 318 317 317 317 317 316 315 315 314 313 313 313 312 312 311 311 311 311 312 312 313 315 316 317 318 319 319 319 319 318 319 318 317 318 318 316 315 314 314 315 316 315 314 313 312 311 311 310 310 310 311 313 315 316 316 315 315 317 317 317 317 317 316 315 314 315 315 314 313 314 314
317 316 316 316 318 320 321 322 323 324 323 322 322 323 322 320 318 316 315 315 315 315 314 314 314 313 313 313 312 312 312 312 312 313 314 314 315 317 319 320 321 322 322 321 320 320 319 319 318 317 318 319 318 317 317 316 316 317 317 315 313 312 312 312 313 313 313 314 315 316 317 316 316 317 318 318 318 317 316 316 315 315 315 315 314 315 314 313
320 320 321 322 323 325 324 324 324 323 321 320 319 320 319 318 317 315 315 315 314 314 314 314 314 313 313 313 312 312 313 313 314 315 317 318 320 322 323 323 323 323 322 321 320 319 319 319 319 319 320 321 320 319 318 317 317 318 317 315 314 313 314 315 314 315 315 315 317 318 319 318 318 319 318 318 317 317 317 316 316 316 317 316 316 315 313 311